Location: Ústí nad Labem
(50.6611°N, 14.0531°E)
Time: 16:42:07
(UTC+02:00)

S-56A Canister/Altair - Pass Details

Date: 17 April 2024
Orbit: 638 x 2488 km, 38.9° (Epoch: 25 May)

Event Time Altitude Azimuth Distance (km) Brightness Sun altitude
Rises 22:37:05 0° 264° (W) 4,128 11.7 -20.7°
Reaches altitude 10° 22:39:49 10° 255° (WSW) 3,395 11.1 -21.0°
Maximum altitude 22:47:38 35° 194° (SSW) 2,534 9.8 -21.8°
Enters shadow 22:51:12 30° 162° (SSE) 2,996 9.9 -22.1°
